�N����,����,�~����,�C��,���x,�C��,����,���ϕ���,�ő�u�ԕ���,�ő厞����,���˗�,�I�_���x,�n�����x,�ő啗���N��,DTYPE
"16/08/12","00:10",0.0,22.8,75.3,1003.4,328.9,1.7,3.6,339.8,0.00,18.2,26.3,"00:09:44",1
"16/08/12","00:20",0.0,22.8,75.1,1003.4,330.9,1.6,3.1,334.7,0.00,18.2,26.3,"00:10:48",1
"16/08/12","00:30",0.0,22.6,75.0,1003.4,326.3,1.5,2.7,338.1,0.00,18.0,25.9,"00:28:56",1
"16/08/12","00:40",0.0,22.6,74.4,1003.6,327.8,1.8,3.5,336.4,0.00,17.9,26.2,"00:39:28",1
"16/08/12","00:50",0.0,22.5,74.5,1003.1,318.6,1.5,3.4,343.0,0.00,17.8,25.9,"00:43:44",1
"16/08/12","01:00",0.0,22.4,74.8,1003.6,305.3,1.5,2.1,339.3,0.00,17.8,25.9,"00:55:52",1
"16/08/12","01:10",0.0,22.4,74.9,1003.4,304.9,1.1,1.9,312.4,0.00,17.8,25.8,"01:07:36",1
"16/08/12","01:20",0.0,22.0,75.7,1002.9,291.4,0.7,1.3,301.4,0.00,17.6,25.7,"01:12:40",1
"16/08/12","01:30",0.0,22.0,77.2,1003.4,309.7,1.0,2.0,340.1,0.00,17.9,25.8,"01:25:20",1
"16/08/12","01:40",0.0,22.0,78.1,1003.1,300.5,1.1,1.8,315.3,0.00,18.0,25.6,"01:35:04",1
"16/08/12","01:50",0.0,22.1,78.5,1003.4,301.4,1.2,2.0,325.0,0.00,18.2,25.7,"01:40:40",1
"16/08/12","02:00",0.0,21.9,79.0,1003.1,298.6,1.1,1.8,308.6,0.00,18.1,25.4,"01:58:32",1
"16/08/12","02:10",0.0,21.8,79.8,1003.1,319.4,1.5,2.4,339.5,0.00,18.2,25.5,"02:08:24",1
"16/08/12","02:20",0.0,21.6,80.6,1003.8,319.0,1.3,2.5,335.1,0.00,18.2,25.4,"02:15:04",1
"16/08/12","02:30",0.0,21.4,81.2,1003.1,313.5,1.3,2.7,343.6,0.00,18.1,25.1,"02:21:36",1
"16/08/12","02:40",0.0,21.4,81.9,1003.4,303.0,1.0,1.4,308.8,0.00,18.2,25.1,"02:37:12",1
"16/08/12","02:50",0.0,21.3,82.7,1003.1,296.7,0.8,1.4,292.6,0.00,18.3,25.1,"02:47:28",1
"16/08/12","03:00",0.0,21.2,82.7,1003.4,291.0,0.8,1.4,315.4,0.00,18.2,25.1,"02:58:48",1
"16/08/12","03:10",0.0,21.1,83.4,1003.1,293.6,0.7,1.3,330.0,0.00,18.2,25.2,"03:01:52",1
"16/08/12","03:20",0.0,21.0,84.0,1003.4,294.9,0.8,2.2,316.6,0.00,18.2,25.0,"03:15:04",1
"16/08/12","03:30",0.0,21.1,84.5,1003.6,304.3,0.8,1.9,327.7,0.00,18.4,25.1,"03:27:44",1
"16/08/12","03:40",0.0,21.1,84.5,1003.4,320.6,1.3,2.2,349.9,0.00,18.4,24.8,"03:38:08",1
"16/08/12","03:50",0.0,21.0,84.9,1003.4,318.7,1.2,1.9,319.6,0.00,18.4,24.9,"03:41:20",1
"16/08/12","04:00",0.0,21.0,85.2,1003.1,328.2,1.3,2.2,334.4,0.00,18.5,25.0,"03:55:12",1
"16/08/12","04:10",0.0,21.0,85.2,1003.4,327.3,1.6,3.4,334.9,0.00,18.5,24.8,"04:05:20",1
"16/08/12","04:20",0.0,21.1,85.1,1003.1,313.3,1.2,1.8,307.6,0.00,18.5,24.8,"04:18:16",1
"16/08/12","04:30",0.0,21.2,84.5,1003.1,307.9,1.0,1.8,312.3,0.00,18.5,24.8,"04:22:00",1
"16/08/12","04:40",0.0,21.1,84.6,1003.6,293.7,0.8,1.6,323.6,0.00,18.4,24.7,"04:35:20",1
"16/08/12","04:50",0.0,20.9,85.4,1003.6,296.2,0.8,1.2,317.9,0.00,18.4,24.7,"04:40:24",1
"16/08/12","05:00",0.0,20.7,86.2,1003.8,291.4,0.8,1.6,313.0,0.00,18.4,24.8,"04:50:56",1
"16/08/12","05:10",0.0,20.7,86.9,1003.8,299.4,0.7,1.2,317.7,0.00,18.5,24.7,"05:05:20",1
"16/08/12","05:20",0.0,20.7,87.3,1004.1,305.5,0.8,1.3,317.2,0.00,18.6,24.6,"05:13:52",1
"16/08/12","05:30",0.0,20.6,87.6,1003.8,292.7,0.7,1.2,319.0,0.00,18.5,24.6,"05:21:36",1
"16/08/12","05:40",0.0,20.6,87.9,1004.3,304.0,0.7,1.2,309.3,0.00,18.6,24.5,"05:30:32",1
"16/08/12","05:50",0.0,20.9,88.1,1004.1,301.9,0.7,1.9,318.0,0.00,18.9,24.4,"05:41:04",1
"16/08/12","06:00",0.0,21.1,87.8,1004.1,302.1,0.8,1.9,332.1,0.00,19.0,24.7,"05:50:02",1
"16/08/12","06:10",0.0,21.6,87.3,1004.5,305.1,0.8,1.4,321.3,0.01,19.4,24.3,"06:00:16",1
"16/08/12","06:20",0.0,22.3,85.6,1004.1,291.9,0.6,1.3,328.6,0.02,19.8,24.5,"06:10:56",1
"16/08/12","06:30",0.0,23.1,84.2,1004.3,278.3,0.5,1.0,297.0,0.03,20.3,24.4,"06:25:04",1
"16/08/12","06:40",0.0,23.8,81.9,1004.1,268.3,0.5,1.9,241.4,0.04,20.6,24.7,"06:32:24",1
"16/08/12","06:50",0.0,24.9,77.7,1004.1,325.8,0.3,1.1,12.3,0.06,20.8,24.7,"06:47:04",1
"16/08/12","07:00",0.0,25.4,77.5,1004.3,7.6,0.5,1.0,352.0,0.08,21.2,24.7,"06:50:40",1
"16/08/12","07:10",0.0,25.8,75.5,1003.8,43.2,0.6,1.1,42.0,0.10,21.2,25.0,"07:02:48",1
"16/08/12","07:20",0.0,26.9,72.8,1003.8,170.6,0.2,0.8,172.5,0.12,21.6,24.9,"07:12:24",1
"16/08/12","07:30",0.0,27.6,69.8,1003.6,231.1,0.3,1.9,227.9,0.15,21.6,25.1,"07:29:20",1
"16/08/12","07:40",0.0,28.0,69.0,1002.9,197.3,0.6,1.4,226.5,0.17,21.8,25.3,"07:32:16",1
"16/08/12","07:50",0.0,28.4,68.2,1003.4,153.6,0.7,1.8,204.9,0.20,22.0,25.4,"07:46:48",1
"16/08/12","08:00",0.0,28.8,66.7,1003.6,158.6,0.6,1.8,124.5,0.22,22.0,25.3,"07:58:56",1
"16/08/12","08:10",0.0,29.3,65.4,1004.1,100.1,0.6,1.7,204.3,0.25,22.2,25.7,"08:02:08",1
"16/08/12","08:20",0.0,29.7,65.3,1004.1,72.1,1.0,2.7,62.5,0.28,22.5,25.8,"08:17:04",1
"16/08/12","08:30",0.0,29.7,64.9,1004.3,123.4,1.0,2.6,131.4,0.29,22.4,26.2,"08:27:44",1
"16/08/12","08:40",0.0,29.9,63.6,1004.3,107.7,0.8,2.0,74.2,0.32,22.3,26.2,"08:39:04",1
"16/08/12","08:50",0.0,30.4,63.4,1004.3,89.7,0.8,2.8,143.6,0.34,22.7,26.6,"08:49:04",1
"16/08/12","09:00",0.0,30.6,62.2,1004.3,136.5,1.3,3.4,159.5,0.36,22.6,26.7,"08:59:28",1
"16/08/12","09:10",0.0,30.5,62.5,1004.5,155.9,1.3,3.2,165.5,0.39,22.6,27.0,"09:00:08",1
"16/08/12","09:20",0.0,31.2,62.4,1004.8,118.1,1.0,1.9,94.9,0.41,23.2,27.3,"09:12:56",1
"16/08/12","09:30",0.0,31.4,60.3,1005.0,116.9,1.1,2.7,133.7,0.43,22.8,27.4,"09:29:36",1
"16/08/12","09:40",0.0,31.3,60.4,1004.8,131.3,1.1,2.1,90.0,0.43,22.8,27.8,"09:39:28",1
"16/08/12","09:50",0.0,32.2,57.6,1005.2,78.3,1.1,2.4,107.6,0.51,22.8,28.1,"09:49:28",1
"16/08/12","10:00",0.0,31.9,60.2,1005.2,106.3,1.2,4.2,45.1,0.44,23.3,28.0,"09:59:12",1
"16/08/12","10:10",0.0,31.9,57.6,1004.5,145.4,1.3,3.2,188.7,0.40,22.5,28.2,"10:00:24",1
"16/08/12","10:20",0.0,32.0,57.1,1004.5,63.4,1.2,2.5,60.4,0.47,22.5,28.7,"10:14:16",1
"16/08/12","10:30",0.0,32.4,59.6,1004.3,73.9,0.8,2.9,38.4,0.40,23.6,28.7,"10:28:24",1
"16/08/12","10:40",0.0,32.3,59.0,1004.5,140.3,1.0,2.1,64.9,0.35,23.3,28.9,"10:31:36",1
"16/08/12","10:50",0.0,32.9,55.3,1004.3,118.4,1.0,2.4,101.9,0.52,22.8,29.2,"10:46:40",1
"16/08/12","11:00",0.0,31.5,58.3,1004.3,157.6,1.0,2.2,201.3,0.18,22.4,29.3,"10:54:32",1
"16/08/12","11:10",0.0,33.3,52.8,1004.1,164.5,1.3,3.5,165.7,0.60,22.4,29.6,"11:07:20",1
"16/08/12","11:20",0.0,33.3,53.5,1004.1,207.1,1.5,3.6,226.3,0.58,22.6,29.9,"11:13:52",1
"16/08/12","11:30",0.0,33.3,54.1,1004.1,91.9,1.0,2.7,78.3,0.51,22.8,30.2,"11:25:36",1
"16/08/12","11:40",0.0,33.8,50.8,1004.1,42.1,1.2,3.1,2.6,0.61,22.2,30.4,"11:32:40",1
"16/08/12","11:50",0.0,34.8,47.6,1004.3,32.1,1.0,2.4,194.3,0.61,22.1,30.7,"11:48:40",1
"16/08/12","12:00",0.0,34.7,45.4,1004.3,175.3,1.7,3.6,222.3,0.62,21.2,30.9,"11:56:32",1
"16/08/12","12:10",0.0,34.7,46.1,1004.3,191.2,1.2,2.7,181.3,0.60,21.5,31.2,"12:02:24",1
"16/08/12","12:20",0.0,34.7,45.5,1004.1,216.7,1.1,2.9,226.9,0.55,21.2,31.6,"12:16:08",1
"16/08/12","12:30",0.0,34.4,44.9,1004.1,20.4,1.1,2.6,52.5,0.39,20.8,31.8,"12:28:40",1
"16/08/12","12:40",0.0,34.7,45.8,1003.8,55.3,1.1,2.1,21.3,0.51,21.3,31.8,"12:32:56",1
"16/08/12","12:50",0.0,35.5,40.3,1004.1,157.3,1.3,3.2,172.6,0.58,20.0,31.9,"12:49:12",1
"16/08/12","13:00",0.0,35.5,42.0,1003.8,203.7,1.6,3.2,214.2,0.59,20.7,32.3,"12:59:20",1
"16/08/12","13:10",0.0,35.6,38.1,1004.1,158.9,1.8,5.7,195.8,0.57,19.2,32.5,"13:08:28",1
"16/08/12","13:20",0.0,35.9,35.3,1003.6,194.7,1.8,3.9,219.8,0.57,18.2,32.7,"13:17:28",1
"16/08/12","13:30",0.0,36.0,36.5,1003.4,170.7,1.6,3.7,227.7,0.56,18.8,32.8,"13:27:36",1
"16/08/12","13:40",0.0,35.9,37.0,1003.1,197.6,2.6,6.0,226.5,0.55,19.0,33.0,"13:33:12",1
"16/08/12","13:50",0.0,36.2,35.5,1003.4,208.2,2.1,4.2,228.4,0.55,18.6,32.7,"13:48:24",1
"16/08/12","14:00",0.0,36.5,31.7,1003.4,207.5,1.2,3.3,226.3,0.53,17.0,32.8,"13:51:12",1
"16/08/12","14:10",0.0,36.5,32.9,1003.1,197.5,1.7,4.5,217.9,0.53,17.6,33.0,"14:00:02",1
"16/08/12","14:20",0.0,36.7,34.3,1003.1,174.8,1.5,4.0,216.8,0.52,18.5,33.0,"14:10:08",1
"16/08/12","14:30",0.0,36.8,33.2,1003.1,190.0,2.1,3.7,217.7,0.49,18.0,32.9,"14:26:48",1
"16/08/12","14:40",0.0,36.9,33.6,1003.1,129.3,1.2,3.1,157.0,0.48,18.3,33.0,"14:36:08",1
"16/08/12","14:50",0.0,37.1,33.1,1002.9,154.7,1.2,2.8,124.0,0.46,18.2,33.0,"14:47:20",1
"16/08/12","15:00",0.0,37.0,32.0,1002.9,192.7,1.7,4.2,230.5,0.45,17.6,33.3,"14:52:08",1
"16/08/12","15:10",0.0,36.4,39.6,1002.4,140.0,1.2,2.1,163.2,0.42,20.5,33.2,"15:06:16",1
"16/08/12","15:20",0.0,36.6,40.0,1002.4,153.0,1.2,2.1,87.0,0.42,20.8,33.3,"15:15:52",1
"16/08/12","15:30",0.0,36.4,38.5,1002.4,110.7,1.3,3.5,190.9,0.42,20.1,33.5,"15:29:12",1
"16/08/12","15:40",0.0,36.5,42.0,1002.4,139.7,1.0,3.3,147.6,0.38,21.6,33.4,"15:38:00",1
"16/08/12","15:50",0.0,36.3,38.1,1002.4,59.1,1.2,2.9,117.0,0.33,19.8,33.1,"15:40:32",1
"16/08/12","16:00",0.0,34.8,44.3,1001.7,56.3,1.1,2.9,2.4,0.11,20.9,33.2,"15:57:12",1
"16/08/12","16:10",0.0,34.4,44.9,1001.5,42.3,1.0,2.4,4.6,0.10,20.8,32.8,"16:05:28",1
"16/08/12","16:20",0.0,34.5,45.7,1001.0,90.4,0.8,2.1,60.6,0.07,21.1,32.7,"16:10:08",1
"16/08/12","16:30",0.0,34.3,45.1,1000.8,113.5,0.8,1.6,36.8,0.06,20.7,32.5,"16:20:32",1
"16/08/12","16:40",0.0,34.0,46.6,1000.5,122.1,1.0,2.6,138.7,0.05,21.0,32.3,"16:39:20",1
"16/08/12","16:50",0.0,33.7,47.0,1000.3,118.1,1.0,2.6,137.3,0.05,20.9,32.1,"16:41:04",1
"16/08/12","17:00",0.0,33.7,48.2,1000.5,123.4,1.0,2.2,150.6,0.04,21.3,32.0,"16:57:36",1
"16/08/12","17:10",0.0,33.5,48.7,1000.3,115.4,0.8,1.8,166.7,0.04,21.3,31.9,"17:01:04",1
"16/08/12","17:20",0.0,33.2,49.6,1000.3,115.1,1.1,2.6,124.6,0.03,21.3,31.7,"17:12:16",1
"16/08/12","17:30",0.0,32.8,50.7,1000.0,121.7,1.0,2.7,128.2,0.02,21.3,31.6,"17:27:20",1
"16/08/12","17:40",0.0,32.8,51.2,1000.0,106.9,1.0,2.6,121.0,0.02,21.4,31.3,"17:38:32",1
"16/08/12","17:50",0.0,32.8,51.8,999.8,78.4,0.8,2.0,110.4,0.01,21.6,31.3,"17:40:40",1
"16/08/12","18:00",0.0,32.6,52.5,999.8,47.1,1.0,2.1,51.4,0.01,21.7,31.2,"17:56:32",1
"16/08/12","18:10",0.0,32.4,53.8,999.8,63.2,0.7,2.4,28.2,0.01,21.9,31.1,"18:03:52",1
"16/08/12","18:20",0.0,32.3,53.8,999.8,72.2,1.1,2.8,80.8,0.00,21.8,31.0,"18:13:44",1
"16/08/12","18:30",0.0,32.2,53.8,999.8,104.5,1.0,2.4,113.8,0.00,21.7,30.7,"18:20:48",1
"16/08/12","18:40",0.0,31.7,51.5,1000.0,145.5,1.5,3.2,163.7,0.00,20.5,30.7,"18:35:20",1
"16/08/12","18:50",0.0,31.5,52.9,999.8,179.9,1.6,2.6,213.5,0.00,20.8,30.5,"18:46:08",1
"16/08/12","19:00",0.0,31.1,54.7,999.8,182.4,1.7,3.7,220.9,0.00,20.9,30.2,"18:51:12",1
"16/08/12","19:10",0.0,30.7,56.1,999.8,158.5,1.2,2.7,211.5,0.00,21.0,30.2,"19:04:56",1
"16/08/12","19:20",0.0,30.4,57.6,999.8,144.9,0.7,2.0,168.0,0.00,21.1,30.0,"19:10:48",1
"16/08/12","19:30",0.0,30.0,58.7,999.8,149.0,1.0,1.4,118.2,0.00,21.1,30.0,"19:27:12",1
"16/08/12","19:40",0.0,29.7,60.3,1000.0,154.4,1.0,2.0,118.4,0.00,21.2,29.8,"19:39:36",1
"16/08/12","19:50",0.0,29.6,60.6,999.8,155.8,1.1,2.5,206.3,0.00,21.2,29.7,"19:44:00",1
"16/08/12","20:00",0.0,29.4,61.7,999.8,159.8,0.7,1.6,136.2,0.00,21.3,29.5,"19:55:44",1
"16/08/12","20:10",0.0,29.1,62.3,1000.8,159.8,0.6,1.3,181.7,0.00,21.2,29.5,"20:04:48",1
"16/08/12","20:20",0.0,28.7,65.3,1000.8,248.9,0.5,1.2,341.8,0.00,21.6,29.3,"20:19:36",1
"16/08/12","20:30",0.0,28.0,69.0,1000.8,332.2,0.7,1.3,340.3,0.00,21.8,28.9,"20:24:08",1
"16/08/12","20:40",0.0,27.3,71.5,1001.0,330.0,0.8,1.4,332.6,0.00,21.7,29.1,"20:37:52",1
"16/08/12","20:50",0.0,27.0,73.3,1001.2,333.7,0.8,1.4,346.4,0.00,21.9,29.0,"20:46:16",1
"16/08/12","21:00",0.0,26.6,73.9,1001.2,305.9,0.6,0.9,328.4,0.00,21.6,28.7,"20:53:36",1
"16/08/12","21:10",0.0,26.3,74.8,1001.2,315.9,0.3,0.8,333.8,0.00,21.5,28.8,"21:06:16",1
"16/08/12","21:20",0.0,26.0,76.1,1001.5,296.0,0.2,0.5,315.5,0.00,21.5,28.6,"21:12:24",1
"16/08/12","21:30",0.0,25.7,77.7,1001.5,310.5,0.2,0.6,334.5,0.00,21.6,28.4,"21:22:48",1
"16/08/12","21:40",0.0,25.5,78.9,1001.5,320.4,0.5,0.8,295.8,0.00,21.6,28.4,"21:39:20",1
"16/08/12","21:50",0.0,25.4,79.9,1001.7,305.9,0.3,0.5,307.4,0.00,21.7,28.4,"21:40:24",1
"16/08/12","22:00",0.0,25.2,80.3,1001.7,288.6,0.3,0.8,337.3,0.00,21.6,28.1,"21:55:20",1
"16/08/12","22:10",0.0,25.1,80.3,1001.5,313.8,0.5,0.8,341.5,0.00,21.5,28.2,"22:03:20",1
"16/08/12","22:20",0.0,25.0,80.8,1001.7,305.2,0.2,0.5,278.8,0.00,21.5,28.2,"22:15:04",1
"16/08/12","22:30",0.0,24.8,82.0,1001.9,306.6,0.5,0.8,315.3,0.00,21.6,27.8,"22:28:24",1
"16/08/12","22:40",0.0,24.6,82.2,1001.7,313.6,0.6,0.9,322.2,0.00,21.4,27.9,"22:35:44",1
"16/08/12","22:50",0.0,24.6,82.7,1001.5,292.0,0.5,0.6,293.6,0.00,21.5,27.7,"22:42:24",1
"16/08/12","23:00",0.0,24.5,83.4,1001.7,317.5,0.6,1.2,321.4,0.00,21.5,27.7,"22:53:20",1
"16/08/12","23:10",0.0,24.6,84.0,1001.9,321.9,0.5,0.9,320.9,0.00,21.8,27.5,"23:06:56",1
"16/08/12","23:20",0.0,24.5,84.4,1002.2,296.2,0.5,0.9,324.7,0.00,21.7,27.4,"23:10:48",1
"16/08/12","23:30",0.0,24.5,84.4,1002.2,319.6,0.7,1.1,336.8,0.00,21.7,27.5,"23:24:56",1
"16/08/12","23:40",0.0,24.6,84.2,1002.2,322.8,0.6,1.3,339.6,0.00,21.8,27.4,"23:32:40",1
"16/08/12","23:50",0.0,24.6,84.1,1002.2,317.2,0.7,1.1,319.9,0.00,21.8,27.3,"23:44:00",1
"16/08/12","24:00",0.0,24.5,84.1,1002.2,305.8,0.7,1.0,300.2,0.00,21.7,27.2,"23:54:08",1
